Lexington Weather

Lexington, Massachusetts, USA

49°F
12/8/2022 2:27pm 
  • Lexington Conditions: Clear
  • Temperature: 49.3°F / 9.6°CColder 0.9°F than last hour.
  • Dew Point: 36.0°FIncreased 0.4°Fsince last hour.
  • Relative Humidity: 60%Increased 3.0% since last hour.
  • Wind: Wind from NNE NNE 3 mph, 10-min avg: 2 mph, gust: 8 mph
  • Barometer: 30.06 in Steady
  • Visibility: 10 miles
  • Rain Today: 0.00 in
  •   

Warning: Undefined variable $rc in /homepages/6/d276339138/htdocs/weather/20190804/ssi/nwsProduct.php on line 323

Warning: Undefined variable $rc in /homepages/6/d276339138/htdocs/weather/20190804/ssi/nwsProduct.php on line 325

Warning: Undefined variable $rc in /homepages/6/d276339138/htdocs/weather/20190804/ssi/nwsProduct.php on line 323

Warning: Undefined variable $rc in /homepages/6/d276339138/htdocs/weather/20190804/ssi/nwsProduct.php on line 325

Warning: Undefined variable $rc in /homepages/6/d276339138/htdocs/weather/20190804/ssi/nwsProduct.php on line 323

Warning: Undefined variable $rc in /homepages/6/d276339138/htdocs/weather/20190804/ssi/nwsProduct.php on line 325

Warning: Undefined variable $rc in /homepages/6/d276339138/htdocs/weather/20190804/ssi/nwsProduct.php on line 323

Warning: Undefined variable $rc in /homepages/6/d276339138/htdocs/weather/20190804/ssi/nwsProduct.php on line 325

Warning: Undefined variable $rc in /homepages/6/d276339138/htdocs/weather/20190804/ssi/nwsProduct.php on line 323

Warning: Undefined variable $rc in /homepages/6/d276339138/htdocs/weather/20190804/ssi/nwsProduct.php on line 325

Warning: Undefined variable $rc in /homepages/6/d276339138/htdocs/weather/20190804/ssi/nwsProduct.php on line 323

Warning: Undefined variable $rc in /homepages/6/d276339138/htdocs/weather/20190804/ssi/nwsProduct.php on line 325

Warning: Undefined variable $rc in /homepages/6/d276339138/htdocs/weather/20190804/ssi/nwsProduct.php on line 323

Warning: Undefined variable $rc in /homepages/6/d276339138/htdocs/weather/20190804/ssi/nwsProduct.php on line 325

Regional Weather Roundup
for Boston, MA

        
000
ASUS41 KBOX 041410
RWRBOX

REGIONAL WEATHER ROUNDUP
NATIONAL WEATHER SERVICE BOSTON/NORTON MA
900 AM EST SUN DEC 04 2022

NOTE:  "FAIR" INDICATES FEW OR NO CLOUDS BELOW 12,000 FEET WITH NO 
SIGNIFICANT WEATHER AND/OR OBSTRUCTIONS TO VISIBILITY.

MAZALL-041500-
EASTERN MASSACHUSETTS
  
CITY           SKY/WX    TMP DP  RH WIND       PRES   REMARKS
BOSTON         MOSUNNY   40  21  46 W10       30.17R                  
BEVERLY        PTSUNNY   37  20  50 W9        30.14R WCI  30          
LAWRENCE       SUNNY     39  20  46 W9        30.16R                  
BEDFORD        SUNNY     38  23  55 SW6       30.15R                  
NORWOOD        SUNNY     40  22  48 W7        30.17R                  
MARSHFIELD       N/A     39  23  52 VRB5G13   30.17R                  
PLYMOUTH       SUNNY     38  23  55 NW7       30.16R                  
TAUNTON          N/A    N/A N/A N/A MISG      30.17S                  
NEW BEDFORD    SUNNY     40  25  55 NW8       30.17S                  
$$

MAZALL-041500-
CAPE COD AND THE ISLANDS
  
CITY           SKY/WX    TMP DP  RH WIND       PRES   REMARKS
FALMOUTH       SUNNY     37  23  56 NW13G22   30.16R WCI  29          
HYANNIS        SUNNY     39  23  52 NW13G20   30.14R WCI  31          
CHATHAM        SUNNY     42  26  53 NW12G20   30.15R                  
PROVINCETOWN   MOSUNNY   41  26  55 NW15      30.16R                  
NANTUCKET      SUNNY     44  26  49 NW17G26   30.16R                  
MARTHAS VNYRD  SUNNY     41  23  48 NW14G24   30.17R                  
$$
 
MAZALL-041500-
CENTRAL AND WESTERN MASSACHUSETTS
  
CITY           SKY/WX    TMP DP  RH WIND       PRES   REMARKS
WORCESTER      PTSUNNY   37  21  52 VRB7      30.12R WCI  32          
FITCHBURG      SUNNY     38  19  46 NW8       30.15S                  
ORANGE         CLOUDY    37  19  48 NW9       30.15R WCI  30          
SPRINGFIELD    PTSUNNY   37  19  48 NW10      30.15S WCI  30          
WESTFIELD      PTSUNNY   38  20  48 NW10G18   30.17F WCI  31          
NORTH ADAMS    CLOUDY    36  21  54 W13       30.15F WCI  27          
PITTSFIELD     CLOUDY    32  20  61 NW9G21    30.12F WCI  24          
$$
 
RIZALL-041500-
RHODE ISLAND
  
CITY           SKY/WX    TMP DP  RH WIND       PRES   REMARKS
PROVIDENCE     MOSUNNY   37  23  56 W6        30.18F                  
NEWPORT        SUNNY     38  24  57 NW9       30.17S WCI  31          
BLOCK ISLAND   SUNNY     38  22  52 NW14G21   30.19F WCI  30          
SMITHFIELD     SUNNY     36  23  59 W6        30.16S WCI  31          
WESTERLY       SUNNY     39  24  55 VRB6      30.19F                  
$$
 
CTZALL-041500-
CONNECTICUT
  
CITY           SKY/WX    TMP DP  RH WIND       PRES   REMARKS
BRADLEY INTL   PTSUNNY   40  20  44 NW15G28   30.18F WCI  32          
HARTFORD       MOSUNNY   40  20  44 NW9G17    30.20S                  
BRIDGEPORT     SUNNY     39  21  48 NW8       30.21F                  
DANBURY        SUNNY     39  19  44 NW5       30.21R                  
GROTON         SUNNY     41  24  51 NW9       30.19F                  
NEW HAVEN      SUNNY     41  24  51 VRB6      30.20F                  
CHESTER        FAIR      39  21  48 NW12G18   30.18F WCI  32          
MERIDEN        MOSUNNY   38  27  64 CALM      30.20S                  
WILLIMANTIC    SUNNY     38  21  50 NW10      30.18S WCI  31          
OXFORD         SUNNY     35  20  54 NW7       30.18F WCI  29          
$$

MEZ002-015-021-024-NHZ003-005-008-011-012-014-VTZ005-008-041500-
NORTHERN NEW ENGLAND
  
CITY           SKY/WX    TMP DP  RH WIND       PRES   REMARKS
PORTLAND ME    MOSUNNY   37  19  48 NW13G24   30.11R WCI  29          
BANGOR ME      MOSUNNY   34  16  47 W8G18     30.05S WCI  27          
CONCORD NH     MOSUNNY   35  16  45 NW16G25   30.13R WCI  25          
MANCHESTER NH  PTSUNNY   39  19  44 NW12      30.13R WCI  32          
NASHUA NH      SUNNY     38  18  44 W10G18    30.15S WCI  31          
PORTSMOUTH NH  PTSUNNY   37  19  47 W10G16    30.13R WCI  30          
JAFFREY NH     PTSUNNY   36  18  48 NW7       30.11R WCI  30          
KEENE NH       CLOUDY    37  17  44 W12G20      N/A  WCI  29          
BURLINGTON VT  PTSUNNY   31  16  54 N12       30.19R WCI  22          
MT. WASHINGTON BLWGSNOW   5   5 100 W68G82      N/A  VSB 0   WCI -27  
$$

NYZ052-076-041500-
EASTERN NEW YORK
  
CITY           SKY/WX    TMP DP  RH WIND       PRES   REMARKS
ALBANY         PTSUNNY   36  24  62 W10       30.19F WCI  28          
NEW YORK CITY  MOSUNNY   40  21  46 N9        30.22F                  
$$
 
ANZALL-041500-
MARINE OBSERVATIONS
  
STATION/POSITION TIME  TEMP    WIND        PRES    VSBY  WAVE
                       AIR SEA DIR/SP/G                  HT/PER
                 (UTC) (F)     (DEG/KT/KT) (MB)    (MI)  (FT/S)
BOSTON BUOY      1350      51  300/ 16/ 23 1021.5R
BUZZARDS BAY     1300   39     310/ 20/ 21 1022.3R
NANTUCKET SOUND  1350   41 49  300/ 19/ 25 1021.1R         2/ 4
MASS BAY-STELLWA 1204   40 50  300/ 16/ 19 1018.6R  1 7/8  2/ 3
ISLE OF SHOALS   1300   38     290/ 20/ 25 1018.8R
S OF BLOCK IS    1356      54                N/A           6/ 8
$$

......................KEY.........................
  SKY/WX - SKY CONDITION/PRESENT WEATHER
  TMP    - TEMPERATURE IN FAHRENHEIT
  DWPT   - DEWPOINT IN FAHRENHEIT
  RH     - RELATIVE HUMIDITY IN PERCENT
  WIND   - DIRECTION AND SPEED IN MPH
  PRES   - MEAN SEA LEVEL PRESSURE IN INCHES OF HG
  WCI    - WIND CHILL INDEX
  VSB    - VISIBILITY IN MILES
  HX     - HEAT INDEX
  TC     - TEMPERATURE IN CELSIUS
  VRB    - VARIABLE WIND DIRECTION
  N/A    - NOT AVAILABLE
  
      

Other recent Regional Weather Roundups

Thu Dec 8, 2:10pm

Thu Dec 8, 1:10pm

Thu Dec 8, 12:10pm

Thu Dec 8, 11:10am

Thu Dec 8, 10:10am

Thu Dec 8, 9:10am

Thu Dec 8, 8:10am

Thu Dec 8, 7:10am

Thu Dec 8, 6:10am

Thu Dec 8, 5:10am

Thu Dec 8, 4:10am

Thu Dec 8, 3:10am

Thu Dec 8, 2:10am

Thu Dec 8, 1:10am

Thu Dec 8, 12:10am

Wed Dec 7, 11:10pm

Wed Dec 7, 10:10pm

Wed Dec 7, 9:10pm

Wed Dec 7, 8:10pm

Wed Dec 7, 7:10pm

Wed Dec 7, 6:10pm

Wed Dec 7, 5:10pm

Wed Dec 7, 4:10pm

Wed Dec 7, 3:10pm

Wed Dec 7, 2:10pm

Wed Dec 7, 1:10pm

Wed Dec 7, 12:10pm

Wed Dec 7, 11:10am

Wed Dec 7, 10:10am

Wed Dec 7, 9:10am

Wed Dec 7, 8:10am

Wed Dec 7, 7:10am

Wed Dec 7, 6:10am

Wed Dec 7, 5:10am

Wed Dec 7, 4:10am

Wed Dec 7, 3:10am

Wed Dec 7, 2:10am

Wed Dec 7, 1:10am

Wed Dec 7, 12:10am

Tue Dec 6, 11:10pm

Tue Dec 6, 10:10pm

Tue Dec 6, 9:10pm

Tue Dec 6, 8:10pm

Tue Dec 6, 7:10pm

Tue Dec 6, 6:10pm

Tue Dec 6, 5:10pm

Tue Dec 6, 4:10pm

Tue Dec 6, 3:10pm

Tue Dec 6, 2:10pm

Tue Dec 6, 1:10pm

Tue Dec 6, 12:10pm

Tue Dec 6, 11:10am

Tue Dec 6, 10:10am

Tue Dec 6, 9:10am

Tue Dec 6, 8:10am

Tue Dec 6, 7:10am

Tue Dec 6, 6:10am

Tue Dec 6, 5:10am

Tue Dec 6, 4:10am

Tue Dec 6, 3:10am

Tue Dec 6, 2:10am

Tue Dec 6, 1:10am

Tue Dec 6, 12:10am

Mon Dec 5, 11:10pm

Mon Dec 5, 10:10pm

Mon Dec 5, 9:10pm

Mon Dec 5, 8:10pm

Mon Dec 5, 7:10pm

Mon Dec 5, 6:10pm

Mon Dec 5, 5:10pm

Mon Dec 5, 4:10pm

Mon Dec 5, 3:10pm

Mon Dec 5, 2:10pm

Mon Dec 5, 1:10pm

Mon Dec 5, 12:10pm

Mon Dec 5, 11:10am

Mon Dec 5, 10:10am

Mon Dec 5, 9:10am

Mon Dec 5, 8:10am

Mon Dec 5, 7:10am

Mon Dec 5, 6:10am

Mon Dec 5, 5:10am

Mon Dec 5, 4:10am

Mon Dec 5, 3:10am

Mon Dec 5, 2:10am

Mon Dec 5, 1:10am

Mon Dec 5, 12:10am

Sun Dec 4, 11:10pm

Sun Dec 4, 10:10pm

Sun Dec 4, 9:10pm

Sun Dec 4, 8:10pm

Sun Dec 4, 7:10pm

Sun Dec 4, 6:10pm

Sun Dec 4, 5:10pm

Sun Dec 4, 4:10pm

Sun Dec 4, 3:10pm

Sun Dec 4, 2:10pm

Sun Dec 4, 1:10pm

Sun Dec 4, 12:10pm

Sun Dec 4, 11:10am

Sun Dec 4, 10:10am

Sun Dec 4, 8:10am

Sun Dec 4, 7:10am

Sun Dec 4, 6:10am

Sun Dec 4, 5:10am

Sun Dec 4, 4:10am

Sun Dec 4, 3:10am

Sun Dec 4, 2:10am

Sun Dec 4, 1:10am

Sun Dec 4, 12:10am

Sat Dec 3, 11:10pm

Sat Dec 3, 10:10pm

Sat Dec 3, 9:10pm

Sat Dec 3, 8:10pm

Sat Dec 3, 7:10pm

Sat Dec 3, 6:10pm

Sat Dec 3, 5:10pm

Sat Dec 3, 4:10pm

Sat Dec 3, 3:10pm

Sat Dec 3, 2:10pm

Sat Dec 3, 1:10pm

Sat Dec 3, 12:10pm

Sat Dec 3, 11:10am

Sat Dec 3, 10:10am

Sat Dec 3, 9:10am

Sat Dec 3, 8:10am

Sat Dec 3, 7:10am

Sat Dec 3, 6:10am

Sat Dec 3, 5:10am

Sat Dec 3, 4:10am

Sat Dec 3, 3:10am

Sat Dec 3, 2:10am

Sat Dec 3, 1:10am

Sat Dec 3, 12:10am

Fri Dec 2, 11:10pm

Fri Dec 2, 10:10pm

Fri Dec 2, 9:10pm

Fri Dec 2, 8:10pm

Fri Dec 2, 7:10pm

Fri Dec 2, 6:10pm

Fri Dec 2, 5:10pm

Fri Dec 2, 4:10pm

Fri Dec 2, 3:10pm

Fri Dec 2, 2:10pm

Fri Dec 2, 1:10pm

Fri Dec 2, 12:10pm

Fri Dec 2, 11:10am

Fri Dec 2, 10:10am

Fri Dec 2, 9:10am

Fri Dec 2, 8:10am

Fri Dec 2, 7:10am

Fri Dec 2, 6:10am

Fri Dec 2, 5:10am

Fri Dec 2, 4:10am

Fri Dec 2, 3:10am

Fri Dec 2, 2:10am

Fri Dec 2, 1:10am

Fri Dec 2, 12:10am

Thu Dec 1, 11:10pm

Thu Dec 1, 10:10pm

Thu Dec 1, 9:10pm

Thu Dec 1, 8:10pm

Thu Dec 1, 7:10pm

Thu Dec 1, 6:10pm

Thu Dec 1, 5:10pm

Thu Dec 1, 4:10pm

Thu Dec 1, 3:10pm

Meta data:

ID: 4a61d0e7-05d6-4337-b33f-8741d98763ec
Link: https://api.weather.gov/products/4a61d0e7-05d6-4337-b33f-8741d98763ec